Погода в Олекминском

Россия / Республика Саха (Якутия)     60°23′16″N   120°11′12″E
темп.,
°C
ветер,
м/с
пор.,
м/с
влажн.,
%
обл.,
%
осадки,
мм/ч
давл.,
гПа
погр.,
м
8 марта, пн
пн800:00−10ю2297100 0.3 100262
03:00−8юз399497 0.5 1000314
06:00−9зюз3992100 0.0 999245
09:00−8зюз31091100 0.0 999425
12:00−5з4786100 0.1 999889
15:00−4з4783100 0.7 1000946
18:00−5зсз4988100 0.4 1002639
21:00−7з51285100 0.5 1006763
9 марта, вт
вт900:00−8зсз61387100 0.2 1008859
03:00−11зсз4138898 0.2 1011573
06:00−12з4119093 0.0 1014566
09:00−13з4119090 0.1 1016540
12:00−10зюз478682 0.0 1016738
15:00−9ююз468691 0.1 1012774
18:00−9ююв41087100 0.1 1008719
21:00−9ю41289100 0.1 1005815
10 марта, ср
ср1000:00−8ююз41195100 0.8 1001706
03:00−8юз31294100 1.0 1001639
06:00−10з71475100 0.1 10041025
09:00−12з51482100 0.1 10091304
12:00−11з8148097 0.1 10111613
15:00−10з8147899 0.3 10111680
18:00−11з41185100 0.1 10141286
21:00−15зюз3108984 0.1 1016300
11 марта, чт
чт1100:00−14юз249395 0.0 101594
03:00−14ююз229797 0.2 101575
06:00−15юз1296100 0.2 101520
09:00−14зюз129685 0.2 101767
12:00−9з478483 0.1 10171073
15:00−8з477992 0.2 10181247
18:00−9юз2287100 0.1 101832
21:00−12ююв229192 0.1 101625
12 марта, пт
пт1200:00−12юв2296100 0.0 101073
03:00−10ююв31090100 0.0 1004297
06:00−7ююз31492100 0.6 1001719
09:00−3юз31291100 0.7 1000783
12:00+1зюз61488100 0.1 9991524
15:000з61287100 0.5 10011436
18:00−3з51283100 0.2 1004843
21:00−6зюз41288100 0.2 1006602